Date,TemperatureHighF,TemperatureAvgF,TemperatureLowF,DewpointHighF,DewpointAvgF,DewpointLowF,HumidityHigh,HumidityAvg,HumidityLow,PressureMaxIn,PressureMinIn,WindSpeedMaxMPH,WindSpeedAvgMPH,GustSpeedMaxMPH,PrecipitationSumIn
2013-2-1,19.5,12.6,7.9,10.9,4.7,-0.4,81,70,58,30.12,29.45,8,4,14,0.00
2013-2-2,18.5,10.7,-1.1,13.0,4.6,-4.8,88,77,58,30.21,30.07,8,2,13,0.00
2013-2-3,25.5,13.7,2.3,14.3,7.0,-1.4,90,76,43,30.08,29.77,3,0,5,0.00
2013-2-4,17.9,7.8,4.9,10.9,-5.0,-8.9,83,55,52,29.91,29.74,7,5,9,0.00
2013-2-5,18.7,4.4,-9.2,3.1,-6.0,-13.7,81,64,38,30.08,29.92,4,1,8,0.00
2013-2-6,25.6,15.6,6.2,20.9,7.9,-7.2,87,72,48,30.36,29.95,8,2,13,0.00
2013-2-7,13.9,4.6,-1.9,-2.5,-8.1,-11.3,72,57,35,30.60,30.36,4,2,7,0.00
2013-2-8,21.2,13.8,10.7,18.5,8.1,-1.9,89,78,54,30.50,29.99,5,2,9,0.25
2013-2-9,14.6,9.4,6.1,11.2,2.9,-1.9,86,75,63,30.35,29.96,7,4,24,0.01
2013-2-10,28.9,9.2,-11.2,6.3,-3.2,-15.9,89,61,29,30.51,30.36,4,1,6,0.00
2013-2-11,31.2,19.5,0.7,29.9,16.2,-3.5,95,87,54,30.37,29.62,8,2,11,0.08
2013-2-12,34.3,31.6,29.0,30.7,28.7,25.3,95,89,82,29.81,29.59,6,2,10,0.01
2013-2-13,32.5,29.3,27.2,25.5,24.1,21.7,92,81,65,29.84,29.76,5,2,8,0.00
2013-2-14,32.9,28.1,23.1,24.5,21.1,17.9,88,76,58,29.98,29.75,4,1,7,0.00
2013-2-15,40.9,31.0,22.3,29.7,23.5,17.8,88,74,52,29.97,29.86,9,2,10,0.00
2013-2-16,29.7,24.0,15.3,22.0,13.0,4.5,80,63,50,29.99,29.90,6,2,9,0.00
2013-2-17,15.0,10.3,6.7,5.9,3.0,0.7,83,72,63,29.89,29.59,8,4,20,0.00
2013-2-18,19.5,9.0,0.0,1.9,-3.2,-7.1,77,60,32,30.19,29.78,10,4,16,0.00
2013-2-19,38.2,22.2,-1.2,30.7,9.2,-7.5,95,60,29,30.22,29.61,9,2,13,0.05
2013-2-20,32.5,24.5,18.6,30.7,19.7,13.5,93,82,69,29.72,29.56,8,3,11,0.15
2013-2-21,21.0,14.1,6.5,17.3,8.7,0.5,86,79,71,30.37,29.73,8,3,14,0.00
2013-2-22,33.2,25.4,15.8,22.3,19.5,12.9,90,79,61,30.47,30.30,4,1,9,0.00
2013-2-23,30.6,28.8,23.1,29.0,24.8,19.3,95,85,72,30.30,29.94,9,4,14,0.10
2013-2-24,35.2,31.9,29.5,32.9,29.8,27.0,95,92,88,29.94,29.78,2,0,4,0.03
2013-2-25,36.5,32.5,29.8,30.3,28.7,27.2,92,86,73,30.25,29.93,3,1,7,0.00
2013-2-26,39.3,33.7,28.5,31.4,28.5,26.5,93,82,65,30.34,30.17,6,1,10,0.00
2013-2-27,37.9,32.2,29.7,31.5,28.0,24.0,95,85,73,30.17,29.67,5,1,8,0.21
2013-2-28,41.4,36.0,30.8,34.2,31.6,28.5,91,84,73,29.67,29.57,3,1,5,0.01